GW0206 Weather Reports


time (UTC)temp
F
wind
direction
speed
knots
gust
knots
rain 1hr
in
rain 24hr
in
rain mn
in
humidity
%
barometer
mb
20260901201004 84 98 4.3 10.4 0.00 0.00 0.00 75 1017.6
20260901200508 84 44 4.3 11.3 0.00 0.00 0.00 75 1017.7
20260901200030 85 63 7.8 14.8 0.00 0.00 0.00 73 1017.4
20260901195508 85 117 5.2 14.8 0.00 0.00 0.00 73 1017.4
20260901195012 86 28 7.8 13.0 0.00 0.00 0.00 72 1017.4
20260901194524 86 35 6.1 13.0 0.00 0.00 0.00 74 1017.4
20260901194014 86 40 6.1 15.6 0.00 0.00 0.00 73 1017.5
20260901193506 86 91 7.8 15.6 0.00 0.00 0.00 72 1017.5
20260901193025 86 57 7.8 13.9 0.00 0.00 0.00 73 1017.5
20260901192514 86 82 7.8 13.9 0.00 0.00 0.00 72 1017.4
20260901192007 86 74 5.2 11.3 0.00 0.00 0.00 73 1017.4
20260901191530 86 119 7.0 11.3 0.00 0.00 0.00 73 1017.4
20260901191014 86 124 5.2 11.3 0.00 0.00 0.00 74 1017.4
20260901190502 85 78 4.3 12.2 0.00 0.00 0.00 73 1017.4
20260901190014 85 45 4.3 12.2 0.00 0.00 0.00 72 1017.4
20260901185504 85 78 3.5 10.4 0.00 0.00 0.00 72 1017.4
20260901185002 85 65 4.3 11.3 0.00 0.00 0.00 74 1017.3
20260901184504 85 47 5.2 11.3 0.00 0.00 0.00 74 1017.5
20260901184003 85 5 3.5 10.4 0.00 0.00 0.00 75 1017.5
20260901183502 84 48 5.2 10.4 0.00 0.00 0.00 73 1017.7
20260901183005 85 87 5.2 10.4 0.00 0.00 0.00 74 1017.6
20260901182504 84 63 5.2 11.3 0.00 0.00 0.00 76 1017.7
20260901182003 83 92 3.5 13.9 0.00 0.00 0.00 76 1017.7
20260901181506 84 59 6.1 13.9 0.00 0.00 0.00 74 1017.8
20260901181004 84 61 6.1 13.0 0.00 0.00 0.00 74 1017.8
20260901180505 84 46 3.5 9.6 0.00 0.00 0.00 76 1017.8
20260901180004 84 67 5.2 9.6 0.00 0.00 0.00 76 1017.9
20260901175503 84 23 5.2 12.2 0.00 0.00 0.00 76 1017.9
20260901175008 84 84 6.1 12.2 0.00 0.00 0.00 74 1017.8
20260901174504 85 62 5.2 14.8 0.00 0.00 0.00 74 1017.9
20260901174004 85 101 7.8 14.8 0.00 0.00 0.00 74 1017.9
20260901173505 85 47 8.7 13.0 0.00 0.00 0.00 75 1018.0
20260901173019 84 44 6.1 11.3 0.00 0.00 0.00 76 1018.1
20260901172503 84 60 6.1 12.2 0.00 0.00 0.00 74 1018.1
20260901172004 84 84 7.0 12.2 0.00 0.00 0.00 75 1018.1
20260901171504 84 114 7.0 12.2 0.00 0.00 0.00 75 1018.2
20260901171005 84 121 6.1 10.4 0.00 0.00 0.00 76 1018.1
20260901170503 84 118 4.3 12.2 0.00 0.00 0.00 75 1018.2
20260901170010 84 100 5.2 13.9 0.00 0.00 0.00 74 1018.3
20260901165502 85 30 6.1 13.9 0.00 0.00 0.00 73 1018.2
20260901165002 85 87 7.8 13.0 0.00 0.00 0.00 73 1018.3
20260901164509 85 109 7.8 15.6 0.00 0.00 0.00 73 1018.4
20260901164009 85 76 8.7 15.6 0.00 0.00 0.00 72 1018.4
20260901163509 85 49 6.1 14.8 0.00 0.00 0.00 75 1018.4
20260901163003 85 59 7.8 17.4 0.00 0.00 0.00 73 1018.5
20260901162506 85 69 9.6 17.4 0.00 0.00 0.00 72 1018.4
20260901162008 85 133 7.8 13.9 0.00 0.00 0.00 73 1018.4
20260901161524 86 115 7.0 14.8 0.00 0.00 0.00 71 1018.3
20260901161003 86 157 7.8 15.6 0.00 0.00 0.00 72 1018.2
20260901160504 87 82 7.0 15.6 0.00 0.00 0.00 70 1018.1
20260901160010 87 71 7.0 14.8 0.00 0.00 0.00 71 1018.2
20260901155503 87 115 6.1 14.8 0.00 0.00 0.00 70 1018.1
20260901155004 86 98 7.0 13.9 0.00 0.00 0.00 71 1018.0
20260901154507 86 116 6.1 13.0 0.00 0.00 0.00 71 1018.0
20260901154003 86 136 4.3 13.0 0.00 0.00 0.00 72 1017.9
20260901153506 86 44 7.0 14.8 0.00 0.00 0.00 73 1017.9
20260901153020 86 63 6.1 15.6 0.00 0.00 0.00 73 1017.8
20260901152509 86 84 7.8 15.6 0.00 0.00 0.00 71 1017.8
20260901152008 86 99 7.0 14.8 0.00 0.00 0.00 71 1017.9
20260901151511 86 91 3.5 10.4 0.00 0.00 0.00 73 1017.9
20260901151009 85 94 5.2 10.4 0.00 0.00 0.00 72 1017.7
20260901150511 85 101 4.3 20.0 0.00 0.00 0.00 72 1017.6
20260901150007 84 147 7.8 20.0 0.00 0.00 0.00 72 1017.7
20260901145503 84 113 7.8 15.6 0.00 0.00 0.00 72 1017.9
20260901145003 84 65 8.7 15.6 0.00 0.00 0.00 72 1017.8
20260901144507 84 47 7.8 13.9 0.00 0.00 0.00 73 1017.8
20260901144005 84 51 5.2 11.3 0.00 0.00 0.00 74 1017.7
20260901143503 83 84 5.2 12.2 0.00 0.00 0.00 74 1017.8
20260901143014 83 117 3.5 13.9 0.00 0.00 0.00 76 1017.8
20260901142507 83 105 4.3 13.9 0.00 0.00 0.00 76 1018.0
20260901142010 83 79 8.7 14.8 0.00 0.00 0.00 75 1018.0
20260901141518 82 72 7.8 15.6 0.00 0.00 0.00 75 1017.9
20260901141012 83 145 7.8 15.6 0.00 0.00 0.00 74 1017.8
20260901140505 83 92 4.3 12.2 0.00 0.00 0.00 76 1017.6
20260901140016 83 79 4.3 9.6 0.00 0.00 0.00 76 1017.6
20260901135509 82 139 4.3 12.2 0.00 0.00 0.00 76 1017.5
20260901135014 82 113 2.6 12.2 0.00 0.00 0.00 77 1017.6
20260901134513 82 80 7.0 12.2 0.00 0.00 0.00 78 1017.6
20260901134007 81 111 3.5 7.8 0.00 0.00 0.00 80 1017.7
20260901133513 81 123 2.6 7.0 0.00 0.00 0.00 79 1017.7
20260901133013 80 105 2.6 10.4 0.00 0.00 0.00 81 1017.7
20260901132507 80 46 5.2 11.3 0.00 0.00 0.00 81 1017.8
20260901132004 79 119 5.2 11.3 0.00 0.00 0.00 82 1017.9
20260901131516 78 88 3.5 9.6 0.00 0.00 0.00 84 1017.8
20260901131004 78 110 5.2 9.6 0.00 0.00 0.00 84 1017.8
20260901130510 78 92 4.3 7.8 0.00 0.00 0.00 84 1017.9
20260901130025 77 94 4.3 9.6 0.00 0.00 0.00 84 1017.9
20260901125516 77 65 3.5 9.6 0.00 0.00 0.00 84 1017.9
20260901125007 77 96 4.3 8.7 0.00 0.00 0.00 85 1018.0
20260901124528 77 92 4.3 8.7 0.00 0.00 0.00 86 1018.0
20260901124014 76 76 4.3 8.7 0.00 0.00 0.00 86 1018.0
20260901123520 76 88 3.5 9.6 0.00 0.00 0.00 86 1018.0
20260901123021 76 84 5.2 9.6 0.00 0.00 0.00 86 1018.0
20260901122515 76 94 4.3 10.4 0.00 0.00 0.00 87 1018.0
20260901122015 75 62 6.1 10.4 0.00 0.00 0.00 87 1017.9
20260901121511 75 102 2.6 7.8 0.00 0.00 0.00 87 1018.0
20260901121006 75 92 4.3 7.8 0.00 0.00 0.00 87 1017.9
20260901120507 75 67 2.6 7.0 0.00 0.00 0.00 88 1018.0
20260901120015 75 93 4.3 7.0 0.00 0.00 0.00 88 1018.0
20260901115507 74 78 3.5 7.0 0.00 0.00 0.00 89 1018.0
20260901115010 74 102 3.5 7.0 0.00 0.00 0.00 89 1017.9
20260901114532 74 93 3.5 6.1 0.00 0.00 0.00 89 1017.9
20260901114013 74 136 1.7 8.7 0.00 0.00 0.00 89 1017.9
20260901113508 74 85 4.3 8.7 0.00 0.00 0.00 89 1017.9
20260901113027 74 63 2.6 5.2 0.00 0.00 0.00 89 1017.9
20260901112514 74 87 1.7 6.1 0.00 0.00 0.00 89 1017.8
20260901112009 74 82 2.6 6.1 0.00 0.00 0.00 89 1017.8
20260901111526 74 80 1.7 4.3 0.00 0.00 0.00 89 1017.7
20260901111014 74 76 1.7 4.3 0.00 0.00 0.00 88 1017.6
20260901110520 74 57 1.7 6.1 0.00 0.00 0.00 88 1017.6
20260901110022 74 59 1.7 6.1 0.00 0.00 0.00 88 1017.5
20260901105508 74 76 2.6 6.1 0.00 0.00 0.00 88 1017.5
20260901105012 74 48 2.6 8.7 0.00 0.00 0.00 89 1017.4
20260901104530 74 78 3.5 8.7 0.00 0.00 0.00 89 1017.4
20260901104012 74 53 3.5 8.7 0.00 0.00 0.00 89 1017.4
20260901103511 74 54 4.3 7.8 0.00 0.00 0.00 90 1017.4
20260901103028 73 86 2.6 7.8 0.00 0.00 0.00 90 1017.5
20260901102518 73 11 2.6 6.1 0.00 0.00 0.00 90 1017.5
20260901102012 73 46 2.6 6.1 0.00 0.00 0.00 90 1017.5
20260901101529 73 76 2.6 6.1 0.00 0.00 0.00 90 1017.5
20260901101014 73 67 1.7 6.1 0.00 0.00 0.00 90 1017.4
20260901100503 73 63 2.6 5.2 0.00 0.00 0.00 91 1017.3
20260901100004 73 36 2.6 6.1 0.00 0.00 0.00 91 1017.3
20260901095506 73 43 1.7 6.1 0.00 0.00 0.00 91 1017.3
20260901095008 73 88 1.7 3.5 0.00 0.00 0.00 90 1017.3
20260901094505 73 26 1.7 3.5 0.00 0.00 0.00 90 1017.4
20260901094002 73 35 0.9 3.5 0.00 0.00 0.00 91 1017.4
20260901093507 73 45 0.9 4.3 0.00 0.00 0.00 91 1017.3
20260901093023 73 68 1.7 4.3 0.00 0.00 0.00 91 1017.4
20260901092505 73 34 1.7 5.2 0.00 0.00 0.00 91 1017.4
20260901092006 73 35 1.7 5.2 0.00 0.00 0.00 91 1017.4
20260901091509 73 38 1.7 6.1 0.00 0.00 0.00 91 1017.4
20260901091004 72 34 1.7 8.7 0.00 0.00 0.00 91 1017.3
20260901090502 72 360 2.6 8.7 0.00 0.00 0.00 91 1017.3
20260901090012 72 18 0.9 3.5 0.00 0.00 0.00 91 1017.4
20260901085503 72 24 0.9 3.5 0.00 0.00 0.00 91 1017.4
20260901085003 72 15 1.7 3.5 0.00 0.00 0.00 91 1017.4
20260901084512 72 17 0.9 3.5 0.00 0.00 0.00 91 1017.4
20260901084010 72 26 1.7 3.5 0.00 0.00 0.00 91 1017.4
20260901083509 73 37 0.9 2.6 0.00 0.00 0.00 91 1017.5
20260901083008 73 19 0.9 2.6 0.00 0.00 0.00 91 1017.4
20260901082506 73 24 0.9 2.6 0.00 0.00 0.00 91 1017.5
20260901082008 73 21 0.9 2.6 0.00 0.00 0.00 90 1017.4
20260901081531 73 36 0.9 3.5 0.00 0.00 0.00 90 1017.5
20260901081002 73 23 0.9 3.5 0.00 0.00 0.00 90 1017.5
20260901080504 73 43 0.9 3.5 0.00 0.00 0.00 90 1017.4
20260901080008 73 28 0.9 3.5 0.00 0.00 0.00 90 1017.4
20260901075503 73 32 0.9 4.3 0.00 0.00 0.00 90 1017.3
20260901075003 73 18 1.7 4.3 0.00 0.00 0.00 90 1017.3
20260901074511 73 57 1.7 4.3 0.00 0.00 0.00 90 1017.3
20260901074005 73 52 1.7 3.5 0.00 0.00 0.00 90 1017.3
20260901073503 73 42 1.7 4.3 0.00 0.00 0.00 90 1017.2
20260901073016 73 46 1.7 4.3 0.00 0.00 0.00 90 1017.2
20260901072511 73 5 1.7 3.5 0.00 0.00 0.00 90 1017.2
20260901072008 73 58 1.7 4.3 0.00 0.00 0.00 90 1017.3
20260901071514 73 22 1.7 7.0 0.00 0.00 0.00 90 1017.3
20260901071009 73 21 1.7 7.0 0.00 0.00 0.00 90 1017.3
20260901070512 73 34 1.7 4.3 0.00 0.00 0.00 90 1017.4
20260901070007 73 32 1.7 3.5 0.00 0.00 0.00 90 1017.5
20260901065507 73 43 1.7 3.5 0.00 0.00 0.00 90 1017.5
20260901065013 73 49 1.7 4.3 0.00 0.00 0.00 90 1017.7
20260901064509 73 42 2.6 4.3 0.00 0.00 0.00 89 1017.5
20260901064005 73 36 1.7 5.2 0.00 0.00 0.00 89 1017.5
20260901063504 73 28 1.7 5.2 0.00 0.00 0.00 89 1017.5
20260901063021 73 30 1.7 4.3 0.00 0.00 0.00 89 1017.5
20260901062509 73 28 1.7 4.3 0.00 0.00 0.00 89 1017.5
20260901062007 73 29 2.6 4.3 0.00 0.00 0.00 90 1017.5
20260901061525 73 30 1.7 4.3 0.00 0.00 0.00 90 1017.6
20260901061009 73 31 1.7 4.3 0.00 0.00 0.00 90 1017.7
20260901060506 73 27 2.6 4.3 0.00 0.00 0.00 90 1017.7
20260901060018 73 34 0.9 4.3 0.00 0.00 0.00 90 1017.8
20260901055511 73 78 1.7 3.5 0.00 0.00 0.00 90 1017.8
20260901055014 73 40 1.7 3.5 0.00 0.00 0.00 90 1017.7
20260901054516 73 32 1.7 3.5 0.00 0.00 0.00 90 1017.8
20260901054011 73 26 1.7 2.6 0.00 0.00 0.00 89 1017.8
20260901053516 73 30 0.9 3.5 0.00 0.00 0.00 89 1017.9
20260901053035 73 22 1.7 4.3 0.00 0.00 0.00 89 1017.9
20260901052506 73 15 1.7 4.3 0.00 0.00 0.00 89 1017.9
20260901052008 73 36 1.7 3.5 0.00 0.00 0.00 89 1017.9
20260901051528 73 62 1.7 4.3 0.00 0.00 0.00 89 1018.1
20260901051003 73 49 1.7 4.3 0.00 0.00 0.00 89 1018.1
20260901050512 73 54 1.7 4.3 0.00 0.00 0.00 89 1018.1
20260901050027 74 46 2.6 4.3 0.00 0.00 0.00 89 1018.0
20260901045513 74 28 1.7 4.3 0.00 0.00 0.00 89 1018.0
20260901045009 74 21 1.7 4.3 0.00 0.00 0.00 89 1018.1
20260901044527 74 15 1.7 4.3 0.00 0.00 0.00 89 1018.1
20260901044012 74 50 1.7 3.5 0.00 0.00 0.00 89 1018.1
20260901043514 74 18 1.7 4.3 0.00 0.00 0.00 88 1018.1
20260901043030 74 26 1.7 4.3 0.00 0.00 0.00 89 1018.2
20260901042512 74 50 1.7 4.3 0.00 0.00 0.00 89 1018.2
20260901042013 74 62 2.6 4.3 0.00 0.00 0.00 89 1018.3
20260901041541 74 88 1.7 3.5 0.00 0.00 0.00 89 1018.2
20260901041007 74 55 1.7 3.5 0.00 0.00 0.00 89 1018.2
20260901040509 74 63 0.9 3.5 0.00 0.00 0.00 89 1018.3
20260901040022 74 65 0.0 3.5 0.00 0.00 0.00 88 1018.3
20260901035506 74 25 0.0 0.9 0.00 0.00 0.00 88 1018.1
20260901035013 74 13 0.0 0.0 0.00 0.00 0.00 88 1017.9
20260901034528 74 13 0.0 0.0 0.00 0.00 0.00 88 1017.9
20260901034013 74 13 0.0 0.0 0.00 0.00 0.00 88 1017.8
20260901033509 74 13 0.0 1.7 0.00 0.00 0.00 88 1017.8
20260901033036 74 13 0.0 1.7 0.00 0.00 0.00 88 1017.8
20260901032518 74 13 0.0 1.7 0.00 0.00 0.00 87 1017.9
20260901032012 74 13 0.0 2.6 0.00 0.00 0.00 87 1017.8
20260901031547 74 13 0.9 2.6 0.00 0.00 0.00 86 1017.7
20260901031006 75 29 0.0 2.6 0.00 0.00 0.00 86 1017.7
20260901030506 75 29 0.0 2.6 0.00 0.00 0.00 86 1017.5
20260901030016 75 29 0.9 2.6 0.00 0.00 0.00 85 1017.6
20260901025509 75 29 0.0 1.7 0.00 0.00 0.00 85 1017.8
20260901025004 75 29 0.0 2.6 0.00 0.00 0.00 84 1017.9
20260901024518 75 29 0.9 2.6 0.00 0.00 0.00 84 1017.9
20260901024009 75 49 0.9 3.5 0.00 0.00 0.00 84 1018.0
20260901023511 76 61 1.7 3.5 0.00 0.00 0.00 84 1018.1
20260901023019 76 82 0.0 3.5 0.00 0.00 0.00 84 1018.1
20260901022514 76 77 0.9 2.6 0.00 0.00 0.00 84 1018.3
20260901022017 76 98 0.9 2.6 0.00 0.00 0.00 83 1018.1
20260901021516 76 24 0.9 2.6 0.00 0.00 0.00 83 1017.9
20260901021008 76 26 0.0 1.7 0.00 0.00 0.00 83 1018.0
20260901020506 77 26 0.0 2.6 0.00 0.00 0.00 82 1017.9
20260901020011 77 26 0.9 2.6 0.00 0.00 0.00 82 1017.7
20260901015506 77 87 0.9 2.6 0.00 0.00 0.00 82 1017.9
20260901015011 77 54 0.9 5.2 0.00 0.00 0.00 82 1017.9
20260901014536 77 98 1.7 5.2 0.00 0.00 0.00 82 1018.0
20260901014011 77 101 1.7 4.3 0.00 0.00 0.00 81 1017.8
20260901013506 77 57 1.7 4.3 0.00 0.00 0.00 81 1017.6
20260901013025 77 65 1.7 6.1 0.00 0.00 0.00 81 1017.5
20260901012511 78 18 3.5 6.1 0.00 0.00 0.00 81 1017.5
20260901012003 78 50 1.7 3.5 0.00 0.00 0.00 81 1017.5
20260901011523 78 61 1.7 6.1 0.00 0.00 0.00 81 1017.7
20260901011013 78 34 2.6 6.1 0.00 0.00 0.00 81 1017.9
20260901010515 78 53 1.7 4.3 0.00 0.00 0.00 82 1018.0
20260901010015 78 47 1.7 6.1 0.00 0.00 0.00 82 1018.1
20260901005512 78 67 2.6 6.1 0.00 0.00 0.00 82 1018.1
20260901005016 78 55 2.6 4.3 0.00 0.00 0.00 82 1018.2
20260901004517 78 85 2.6 6.1 0.00 0.00 0.00 82 1018.3
20260901004007 78 96 2.6 6.1 0.00 0.00 0.00 82 1018.3
20260901003509 78 105 2.6 6.1 0.00 0.00 0.00 82 1018.2
20260901003023 78 75 1.7 6.1 0.00 0.00 0.00 82 1018.2
20260901002506 78 52 2.6 5.2 0.00 0.00 0.00 83 1018.2
20260901002014 78 72 1.7 5.2 0.00 0.00 0.00 83 1018.2
20260901001536 79 46 1.7 4.3 0.00 0.00 0.00 83 1018.2
20260901001013 79 78 1.7 4.3 0.00 0.00 0.00 83 1018.1
20260901000509 79 69 0.9 3.5 0.00 0.00 0.00 82 1018.1
20260901000028 80 101 1.7 3.5 0.00 0.00 0.00 82 1018.2
20260831235517 80 80 0.9 2.6 0.00 0.00 0.00 82 1018.2
20260831235014 80 80 0.9 2.6 0.00 0.00 0.00 81 1018.3
20260831234524 81 80 0.0 1.7 0.00 0.00 0.00 80 1018.4
20260831234014 81 80 0.9 1.7 0.00 0.00 0.00 79 1018.4
20260831233516 82 80 0.0 1.7 0.00 0.00 0.00 79 1018.4
20260831233016 82 80 0.0 2.6 0.00 0.00 0.00 78 1018.3
20260831232508 82 80 0.0 2.6 0.00 0.00 0.00 77 1018.4
20260831232009 82 80 0.0 0.0 0.00 0.00 0.00 77 1018.4
20260831231526 83 80 0.0 1.7 0.00 0.00 0.00 77 1018.4
20260831231011 83 80 0.0 1.7 0.00 0.00 0.00 77 1018.4
20260831230512 83 80 0.9 1.7 0.00 0.00 0.00 77 1018.3
20260831230028 83 80 0.0 1.7 0.00 0.00 0.00 76 1018.3
20260831225521 84 80 0.0 0.9 0.00 0.00 0.00 74 1018.2
20260831225013 84 80 0.0 1.7 0.00 0.00 0.00 76 1018.3
20260831224530 84 80 0.0 1.7 0.00 0.00 0.00 74 1018.3
20260831224020 84 80 0.0 1.7 0.00 0.00 0.00 73 1018.2
20260831223510 85 80 0.0 2.6 0.00 0.00 0.00 72 1018.2
20260831223030 85 80 0.9 2.6 0.00 0.00 0.00 71 1018.3
20260831222517 85 80 0.0 1.7 0.00 0.00 0.00 71 1018.3
20260831222017 85 80 0.0 0.9 0.00 0.00 0.00 69 1018.1
20260831221524 86 127 0.0 0.0 0.00 0.00 0.00 70 1018.2
20260831221009 86 127 0.0 0.0 0.00 0.00 0.00 70 1018.2
20260831220513 85 127 0.0 0.0 0.00 0.00 0.00 71 1018.3
20260831220027 85 127 0.0 1.7 0.00 0.00 0.00 68 1018.3
20260831215513 86 127 0.0 1.7 0.00 0.00 0.00 69 1018.5
20260831215014 86 116 0.0 2.6 0.00 0.00 0.00 69 1018.4
20260831214530 85 116 0.0 3.5 0.00 0.00 0.00 69 1018.4
20260831214012 85 116 0.0 5.2 0.00 0.00 0.00 70 1018.4
20260831213516 85 120 0.0 5.2 0.00 0.00 0.00 70 1018.5
20260831213034 85 110 0.9 3.5 0.00 0.00 0.00 70 1018.6
20260831212519 84 96 0.9 3.5 0.00 0.00 0.00 71 1018.7
20260831212015 84 135 0.0 3.5 0.00 0.00 0.00 73 1018.7
20260831211531 84 125 0.9 6.1 0.00 0.00 0.00 73 1018.6
20260831211021 84 97 1.7 6.1 0.00 0.00 0.00 73 1018.5
20260831210517 84 94 2.6 6.1 0.00 0.00 0.00 73 1018.4
20260831210028 83 109 2.6 6.1 0.00 0.00 0.00 73 1018.4
20260831205510 83 101 0.9 2.6 0.00 0.00 0.00 74 1018.3
20260831205012 84 101 0.9 2.6 0.00 0.00 0.00 73 1018.2
20260831204530 84 101 0.0 1.7 0.00 0.00 0.00 71 1018.1
20260831204004 84 101 0.0 2.6 0.00 0.00 0.00 72 1018.1
20260831203504 84 101 0.0 4.3 0.00 0.00 0.00 70 1018.2
20260831203004 84 89 0.9 6.1 0.00 0.00 0.00 68 1018.1
20260831202502 85 76 2.6 6.1 0.00 0.00 0.00 66 1018.0
20260831202003 85 63 2.6 7.0 0.00 0.00 0.00 65 1018.0
20260831201516 86 84 2.6 8.7 0.00 0.00 0.00 64 1018.3